| time (UTC) | temp C | wind direction | speed KPH | gust KPH | rain 1hr cm | rain 24hr cm | rain mn cm | humidity % | barometer mb |
| 20260510071441 | 11 | 27 | 0.0 | 0.0 | 0.00 | 0.38 | 0.38 | 99 | 1008.2 |
| 20260510070939 | 11 | 31 | 0.0 | 0.0 | 0.00 | 0.38 | 0.38 | 99 | 1008.0 |
| 20260510070436 | 11 | 30 | 0.0 | 1.6 | 0.00 | 0.38 | 0.38 | 99 | 1007.9 |
| 20260510065931 | 11 | 140 | 1.6 | 3.2 | 0.00 | 0.38 | 0.38 | 99 | 1008.2 |
| 20260510065428 | 11 | 20 | 0.0 | 0.0 | 0.00 | 0.38 | 0.38 | 99 | 1008.2 |
| 20260510064924 | 11 | 28 | 1.6 | 1.6 | 0.00 | 0.38 | 0.38 | 99 | 1008.2 |
| 20260510064422 | 11 | 75 | 1.6 | 1.6 | 0.00 | 0.38 | 0.38 | 99 | 1008.2 |
| 20260510063919 | 11 | 51 | 1.6 | 1.6 | 0.00 | 0.38 | 0.38 | 99 | 1008.3 |
| 20260510063415 | 11 | 38 | 0.0 | 0.0 | 0.00 | 0.38 | 0.38 | 99 | 1007.9 |
| 20260510062913 | 10 | 29 | 0.0 | 0.0 | 0.00 | 0.38 | 0.38 | 99 | 1008.0 |
| 20260510062408 | 10 | 26 | 0.0 | 0.0 | 0.00 | 0.38 | 0.38 | 99 | 1008.3 |
| 20260510061903 | 10 | 24 | 0.0 | 0.0 | 0.00 | 0.38 | 0.38 | 99 | 1008.1 |
| 20260510061400 | 10 | 33 | 0.0 | 0.0 | 0.00 | 0.38 | 0.38 | 99 | 1008.3 |
| 20260510060856 | 11 | 23 | 0.0 | 0.0 | 0.00 | 0.38 | 0.38 | 99 | 1008.4 |
| 20260510060353 | 11 | 25 | 0.0 | 0.0 | 0.00 | 0.38 | 0.38 | 99 | 1008.3 |
| 20260510055849 | 11 | 26 | 0.0 | 0.0 | 0.00 | 0.38 | 0.38 | 99 | 1008.3 |
| 20260510055349 | 11 | 36 | 0.0 | 0.0 | 0.00 | 0.38 | 0.38 | 99 | 1008.2 |
| 20260510054848 | 11 | 26 | 0.0 | 0.0 | 0.00 | 0.38 | 0.38 | 99 | 1008.5 |
| 20260510054344 | 11 | 29 | 0.0 | 0.0 | 0.18 | 0.38 | 0.38 | 99 | 1008.5 |
| 20260510053839 | 11 | 15 | 1.6 | 1.6 | 0.30 | 0.38 | 0.38 | 99 | 1008.8 |
| 20260510053335 | 11 | 333 | 3.2 | 3.2 | 0.48 | 0.36 | 0.36 | 99 | 1009.1 |
| 20260510052831 | 11 | 21 | 0.0 | 1.6 | 0.48 | 0.33 | 0.33 | 99 | 1008.5 |
| 20260510052327 | 11 | 114 | 0.0 | 0.0 | 0.48 | 0.30 | 0.30 | 99 | 1008.9 |
| 20260510051824 | 11 | 20 | 0.0 | 0.0 | 0.18 | 0.25 | 0.25 | 99 | 1009.3 |
| 20260510051321 | 11 | 292 | 3.2 | 3.2 | 0.00 | 0.23 | 0.23 | 99 | 1009.4 |
| 20260510050817 | 11 | 342 | 3.2 | 3.2 | 0.00 | 0.23 | 0.23 | 99 | 1009.3 |
| 20260510050314 | 11 | 26 | 0.0 | 0.0 | 0.43 | 0.23 | 0.23 | 99 | 1009.0 |
| 20260510045811 | 11 | 16 | 0.0 | 0.0 | 0.71 | 0.23 | 0.23 | 99 | 1009.2 |
| 20260510045308 | 11 | 13 | 0.0 | 0.0 | 0.30 | 0.15 | 0.15 | 99 | 1009.1 |
| 20260510044805 | 11 | 21 | 0.0 | 0.0 | 0.18 | 0.10 | 0.10 | 99 | 1009.0 |
| 20260510044302 | 11 | 45 | 1.6 | 1.6 | 0.30 | 0.10 | 0.10 | 99 | 1009.2 |
| 20260510043758 | 11 | 6 | 0.0 | 0.0 | 0.30 | 0.08 | 0.08 | 99 | 1009.1 |
| 20260510043254 | 11 | 291 | 3.2 | 4.8 | 0.30 | 0.05 | 0.05 | 99 | 1009.0 |
| 20260510042752 | 11 | 343 | 3.2 | 4.8 | 0.13 | 0.03 | 0.03 | 99 | 1008.8 |
| 20260510042247 | 11 | 353 | 1.6 | 1.6 | 0.13 | 0.03 | 0.03 | 99 | 1008.7 |
| 20260510041744 | 11 | 13 | 0.0 | 0.0 | 0.00 | 0.00 | 0.00 | 99 | 1008.1 |
| 20260510041242 | 11 | 86 | 3.2 | 3.2 | 0.00 | 0.00 | 0.00 | 99 | 1008.1 |
| 20260510040739 | 11 | 59 | 3.2 | 3.2 | 0.00 | 0.00 | 0.00 | 99 | 1008.0 |
| 20260510040236 | 11 | 37 | 3.2 | 3.2 | 0.00 | 0.00 | 0.00 | 99 | 1008.2 |
| 20260510035731 | 11 | 52 | 0.0 | 1.6 | 0.00 | 1.40 | 1.40 | 99 | 1008.0 |
| 20260510035227 | 11 | 27 | 0.0 | 0.0 | 0.00 | 1.40 | 1.40 | 99 | 1007.9 |
| 20260510034723 | 11 | 61 | 1.6 | 1.6 | 0.00 | 1.40 | 1.40 | 99 | 1008.1 |
| 20260510034221 | 11 | 27 | 0.0 | 0.0 | 0.00 | 1.40 | 1.40 | 99 | 1008.3 |
| 20260510033717 | 11 | 89 | 1.6 | 1.6 | 0.00 | 1.40 | 1.40 | 99 | 1008.3 |
| 20260510033215 | 11 | 31 | 0.0 | 0.0 | 0.00 | 1.40 | 1.40 | 99 | 1008.2 |
| 20260510032711 | 11 | 30 | 0.0 | 1.6 | 0.00 | 1.40 | 1.40 | 99 | 1008.2 |
| 20260510032206 | 11 | 19 | 0.0 | 0.0 | 0.00 | 1.40 | 1.40 | 99 | 1008.3 |
| 20260510031701 | 11 | 18 | 0.0 | 0.0 | 0.00 | 1.40 | 1.40 | 99 | 1008.2 |
| 20260510031153 | 11 | 19 | 0.0 | 0.0 | 0.00 | 1.40 | 1.40 | 99 | 1008.3 |
| 20260510030652 | 11 | 16 | 0.0 | 0.0 | 0.00 | 1.40 | 1.40 | 99 | 1008.2 |
| 20260510030150 | 11 | 20 | 0.0 | 0.0 | 0.18 | 1.40 | 1.40 | 99 | 1008.2 |
| 20260510025647 | 11 | 23 | 0.0 | 0.0 | 0.18 | 1.40 | 1.40 | 99 | 1008.1 |
| 20260510025144 | 11 | 32 | 0.0 | 0.0 | 0.30 | 1.37 | 1.37 | 99 | 1008.1 |
| 20260510024641 | 11 | 28 | 1.6 | 1.6 | 0.61 | 1.37 | 1.37 | 99 | 1008.4 |
| 20260510024138 | 11 | 62 | 0.0 | 0.0 | 0.61 | 1.32 | 1.32 | 99 | 1008.7 |
| 20260510023633 | 11 | 24 | 0.0 | 0.0 | 0.79 | 1.27 | 1.27 | 99 | 1009.1 |
| 20260510023131 | 11 | 90 | 0.0 | 0.0 | 0.61 | 1.22 | 1.22 | 99 | 1009.2 |
| 20260510022631 | 11 | 34 | 0.0 | 0.0 | 0.48 | 1.14 | 1.14 | 99 | 1009.0 |
| 20260510022126 | 11 | 27 | 0.0 | 0.0 | 0.48 | 1.12 | 1.12 | 98 | 1009.2 |
| 20260510021622 | 11 | 13 | 0.0 | 0.0 | 0.61 | 1.07 | 1.07 | 98 | 1009.2 |
| 20260510021120 | 11 | 23 | 0.0 | 0.0 | 0.79 | 1.04 | 1.04 | 98 | 1009.2 |
| 20260510020619 | 11 | 2 | 1.6 | 3.2 | 0.79 | 0.99 | 0.99 | 98 | 1009.4 |
| 20260510020115 | 11 | 273 | 1.6 | 3.2 | 0.79 | 0.94 | 0.94 | 97 | 1009.2 |
| 20260510015612 | 11 | 3 | 3.2 | 4.8 | 0.89 | 0.86 | 0.86 | 97 | 1009.2 |
| 20260510015108 | 11 | 284 | 4.8 | 6.4 | 1.68 | 0.81 | 0.81 | 96 | 1009.1 |
| 20260510014603 | 12 | 332 | 8.0 | 11.3 | 1.98 | 0.74 | 0.74 | 94 | 1008.8 |
| 20260510014102 | 12 | 277 | 11.3 | 12.9 | 0.48 | 0.48 | 0.48 | 90 | 1008.9 |
| 20260510013555 | 13 | 20 | 4.8 | 9.7 | 0.00 | 0.41 | 0.41 | 84 | 1008.7 |
| 20260510013052 | 16 | 6 | 17.7 | 24.1 | 0.00 | 0.41 | 0.41 | 74 | 1007.8 |
| 20260510012551 | 16 | 5 | 3.2 | 4.8 | 0.00 | 0.41 | 0.41 | 70 | 1006.9 |
| 20260510012048 | 16 | 40 | 1.6 | 1.6 | 0.00 | 0.41 | 0.41 | 69 | 1006.4 |
| 20260510011547 | 16 | 61 | 3.2 | 3.2 | 0.00 | 0.41 | 0.41 | 70 | 1006.0 |
| 20260510011044 | 16 | 23 | 0.0 | 0.0 | 0.00 | 0.41 | 0.41 | 70 | 1006.0 |
| 20260510010540 | 16 | 352 | 0.0 | 0.0 | 0.00 | 0.41 | 0.41 | 70 | 1006.0 |
| 20260510010037 | 16 | 350 | 1.6 | 1.6 | 0.00 | 0.41 | 0.41 | 70 | 1006.0 |
| 20260510005533 | 16 | 25 | 1.6 | 1.6 | 0.00 | 0.41 | 0.41 | 70 | 1006.1 |
| 20260510005031 | 16 | 167 | 4.8 | 4.8 | 0.00 | 0.41 | 0.41 | 69 | 1006.0 |
| 20260510004528 | 16 | 223 | 1.6 | 4.8 | 0.00 | 0.41 | 0.41 | 69 | 1006.0 |
| 20260510004026 | 16 | 226 | 8.0 | 11.3 | 0.00 | 0.41 | 0.41 | 69 | 1005.9 |
| 20260510003523 | 16 | 320 | 4.8 | 6.4 | 0.00 | 0.41 | 0.41 | 68 | 1005.8 |
| 20260510003018 | 16 | 226 | 3.2 | 4.8 | 0.00 | 0.41 | 0.41 | 68 | 1005.9 |
| 20260510002514 | 16 | 198 | 4.8 | 6.4 | 0.00 | 0.41 | 0.41 | 68 | 1005.8 |
| 20260510002011 | 16 | 296 | 1.6 | 1.6 | 0.00 | 0.41 | 0.41 | 68 | 1005.8 |
| 20260510001508 | 16 | 131 | 3.2 | 4.8 | 0.00 | 0.41 | 0.41 | 68 | 1005.5 |
| 20260510001006 | 17 | 98 | 3.2 | 3.2 | 0.00 | 0.41 | 0.41 | 68 | 1005.7 |
| 20260510000501 | 17 | 177 | 6.4 | 12.9 | 0.00 | 0.41 | 0.41 | 66 | 1005.6 |
| 20260509235958 | 17 | 154 | 6.4 | 9.7 | 0.00 | 0.41 | 0.41 | 66 | 1005.6 |
| 20260509235455 | 17 | 92 | 4.8 | 4.8 | 0.00 | 0.41 | 0.41 | 67 | 1005.6 |
| 20260509234951 | 17 | 78 | 3.2 | 3.2 | 0.00 | 0.41 | 0.41 | 68 | 1005.4 |
| 20260509234448 | 17 | 124 | 8.0 | 14.5 | 0.00 | 0.41 | 0.41 | 66 | 1005.4 |
| 20260509233946 | 17 | 22 | 1.6 | 3.2 | 0.00 | 0.41 | 0.41 | 67 | 1005.3 |
| 20260509233443 | 17 | 42 | 3.2 | 3.2 | 0.00 | 0.41 | 0.41 | 65 | 1005.4 |
| 20260509232939 | 18 | 218 | 11.3 | 17.7 | 0.00 | 0.41 | 0.41 | 63 | 1005.6 |
| 20260509232437 | 18 | 158 | 3.2 | 3.2 | 0.00 | 0.41 | 0.41 | 64 | 1005.4 |
| 20260509231932 | 18 | 170 | 4.8 | 6.4 | 0.00 | 0.41 | 0.41 | 62 | 1005.4 |
| 20260509231429 | 18 | 344 | 3.2 | 3.2 | 0.00 | 0.41 | 0.41 | 63 | 1005.3 |
| 20260509230928 | 18 | 139 | 4.8 | 4.8 | 0.00 | 0.41 | 0.41 | 62 | 1005.2 |
| 20260509230424 | 18 | 294 | 8.0 | 14.5 | 0.00 | 0.41 | 0.41 | 62 | 1005.3 |
| 20260509225920 | 18 | 170 | 12.9 | 22.5 | 0.00 | 0.41 | 0.41 | 62 | 1005.2 |
| 20260509225417 | 18 | 173 | 6.4 | 6.4 | 0.00 | 0.41 | 0.41 | 63 | 1005.4 |
| 20260509224913 | 18 | 279 | 14.5 | 16.1 | 0.00 | 0.41 | 0.41 | 63 | 1005.2 |
| 20260509224414 | 18 | 77 | 3.2 | 4.8 | 0.00 | 0.41 | 0.41 | 63 | 1004.9 |
| 20260509223911 | 18 | 17 | 1.6 | 3.2 | 0.00 | 0.41 | 0.41 | 64 | 1005.0 |
| 20260509223408 | 18 | 191 | 6.4 | 6.4 | 0.00 | 0.41 | 0.41 | 63 | 1004.9 |
| 20260509222905 | 18 | 49 | 3.2 | 4.8 | 0.00 | 0.41 | 0.41 | 62 | 1005.2 |
| 20260509222400 | 18 | 176 | 3.2 | 4.8 | 0.00 | 0.41 | 0.41 | 63 | 1005.0 |
| 20260509221855 | 18 | 79 | 4.8 | 6.4 | 0.00 | 0.41 | 0.41 | 64 | 1005.1 |
| 20260509221353 | 18 | 88 | 6.4 | 6.4 | 0.00 | 0.41 | 0.41 | 63 | 1005.2 |
| 20260509220849 | 18 | 28 | 0.0 | 0.0 | 0.00 | 0.41 | 0.41 | 64 | 1005.2 |
| 20260509220345 | 18 | 34 | 4.8 | 6.4 | 0.00 | 0.41 | 0.41 | 63 | 1005.2 |
| 20260509215840 | 18 | 184 | 11.3 | 12.9 | 0.00 | 0.41 | 0.41 | 62 | 1005.1 |
| 20260509215337 | 18 | 136 | 6.4 | 11.3 | 0.00 | 0.41 | 0.41 | 64 | 1005.2 |
| 20260509214835 | 18 | 291 | 8.0 | 9.7 | 0.00 | 0.41 | 0.41 | 63 | 1005.2 |
| 20260509214332 | 18 | 179 | 6.4 | 6.4 | 0.00 | 0.41 | 0.41 | 63 | 1005.5 |
| 20260509213829 | 18 | 245 | 14.5 | 16.1 | 0.00 | 0.41 | 0.41 | 65 | 1005.4 |
| 20260509213324 | 18 | 198 | 4.8 | 6.4 | 0.00 | 0.41 | 0.41 | 66 | 1005.4 |
| 20260509212822 | 18 | 281 | 3.2 | 6.4 | 0.00 | 0.41 | 0.41 | 65 | 1005.4 |
| 20260509212320 | 19 | 182 | 6.4 | 9.7 | 0.00 | 0.41 | 0.41 | 66 | 1005.3 |
| 20260509211815 | 18 | 71 | 3.2 | 4.8 | 0.00 | 0.41 | 0.41 | 67 | 1005.5 |
| 20260509211311 | 17 | 106 | 8.0 | 9.7 | 0.00 | 0.41 | 0.41 | 67 | 1005.5 |
| 20260509210808 | 18 | 185 | 9.7 | 11.3 | 0.00 | 0.41 | 0.41 | 67 | 1005.6 |
| 20260509210306 | 18 | 171 | 3.2 | 4.8 | 0.00 | 0.41 | 0.41 | 67 | 1005.7 |
| 20260509205804 | 18 | 185 | 4.8 | 6.4 | 0.00 | 0.41 | 0.41 | 67 | 1005.7 |
| 20260509205300 | 18 | 184 | 6.4 | 6.4 | 0.00 | 0.41 | 0.41 | 64 | 1005.9 |
| 20260509204756 | 18 | 157 | 6.4 | 9.7 | 0.00 | 0.41 | 0.41 | 67 | 1005.8 |
| 20260509204252 | 18 | 233 | 8.0 | 9.7 | 0.00 | 0.41 | 0.41 | 65 | 1006.0 |
| 20260509203748 | 18 | 86 | 6.4 | 9.7 | 0.00 | 0.41 | 0.41 | 66 | 1005.7 |
| 20260509203246 | 18 | 279 | 8.0 | 11.3 | 0.00 | 0.41 | 0.41 | 67 | 1005.7 |
| 20260509202742 | 17 | 206 | 6.4 | 9.7 | 0.00 | 0.41 | 0.41 | 68 | 1006.0 |
| 20260509202238 | 18 | 244 | 12.9 | 16.1 | 0.00 | 0.41 | 0.41 | 68 | 1006.1 |
| 20260509201733 | 18 | 318 | 3.2 | 4.8 | 0.00 | 0.41 | 0.41 | 69 | 1006.0 |
| 20260509201230 | 18 | 285 | 8.0 | 9.7 | 0.00 | 0.41 | 0.41 | 67 | 1006.2 |
| 20260509200726 | 17 | 311 | 4.8 | 4.8 | 0.00 | 0.41 | 0.41 | 69 | 1006.2 |
| 20260509200221 | 18 | 249 | 9.7 | 11.3 | 0.00 | 0.41 | 0.41 | 71 | 1006.4 |
| 20260509195717 | 17 | 278 | 12.9 | 14.5 | 0.00 | 0.41 | 0.41 | 69 | 1006.6 |
| 20260509195213 | 17 | 317 | 8.0 | 9.7 | 0.00 | 0.41 | 0.41 | 71 | 1006.4 |
| 20260509194713 | 17 | 243 | 6.4 | 6.4 | 0.00 | 0.41 | 0.41 | 75 | 1006.2 |
| 20260509194210 | 17 | 193 | 9.7 | 12.9 | 0.00 | 0.41 | 0.41 | 71 | 1006.3 |
| 20260509193706 | 16 | 263 | 8.0 | 11.3 | 0.00 | 0.41 | 0.41 | 74 | 1006.5 |
| 20260509193206 | 17 | 346 | 8.0 | 12.9 | 0.00 | 0.41 | 0.41 | 70 | 1006.4 |
| 20260509192703 | 17 | 217 | 6.4 | 9.7 | 0.00 | 0.41 | 0.41 | 71 | 1006.6 |
| 20260509192158 | 17 | 243 | 9.7 | 14.5 | 0.00 | 0.41 | 0.41 | 74 | 1006.7 |
| 20260509191654 | 17 | 162 | 3.2 | 3.2 | 0.00 | 0.41 | 0.41 | 71 | 1006.6 |
| 20260509191150 | 17 | 288 | 9.7 | 11.3 | 0.00 | 0.41 | 0.41 | 74 | 1006.7 |
| 20260509190646 | 17 | 215 | 4.8 | 4.8 | 0.00 | 0.41 | 0.41 | 71 | 1006.7 |
| 20260509190143 | 17 | 245 | 3.2 | 3.2 | 0.00 | 0.41 | 0.41 | 77 | 1006.7 |
| 20260509185642 | 17 | 188 | 8.0 | 11.3 | 0.00 | 0.41 | 0.41 | 73 | 1006.8 |
| 20260509185137 | 17 | 168 | 8.0 | 9.7 | 0.00 | 0.41 | 0.41 | 75 | 1006.9 |
| 20260509184635 | 16 | 276 | 12.9 | 16.1 | 0.00 | 0.41 | 0.41 | 75 | 1006.8 |
| 20260509184132 | 16 | 248 | 4.8 | 4.8 | 0.00 | 0.41 | 0.41 | 76 | 1006.9 |
| 20260509183628 | 16 | 316 | 9.7 | 12.9 | 0.00 | 0.41 | 0.41 | 77 | 1007.0 |
| 20260509183123 | 16 | 178 | 3.2 | 4.8 | 0.00 | 0.41 | 0.41 | 76 | 1007.1 |
| 20260509182619 | 16 | 296 | 3.2 | 6.4 | 0.00 | 0.41 | 0.41 | 79 | 1006.9 |
| 20260509182117 | 16 | 175 | 4.8 | 6.4 | 0.00 | 0.41 | 0.41 | 78 | 1007.1 |
| 20260509181615 | 16 | 179 | 4.8 | 4.8 | 0.00 | 0.41 | 0.41 | 80 | 1007.0 |
| 20260509181112 | 15 | 258 | 17.7 | 20.9 | 0.00 | 0.41 | 0.41 | 80 | 1007.0 |
| 20260509180608 | 15 | 298 | 6.4 | 6.4 | 0.00 | 0.41 | 0.41 | 82 | 1007.1 |
| 20260509180105 | 15 | 199 | 4.8 | 6.4 | 0.00 | 0.41 | 0.41 | 83 | 1007.1 |
| 20260509175600 | 15 | 47 | 6.4 | 9.7 | 0.00 | 0.41 | 0.41 | 82 | 1007.0 |
| 20260509175058 | 15 | 259 | 11.3 | 16.1 | 0.00 | 0.41 | 0.41 | 85 | 1006.9 |
| 20260509174554 | 15 | 79 | 1.6 | 1.6 | 0.00 | 0.41 | 0.41 | 84 | 1007.2 |
| 20260509174049 | 15 | 174 | 3.2 | 3.2 | 0.00 | 0.41 | 0.41 | 84 | 1007.1 |
| 20260509173549 | 15 | 316 | 4.8 | 6.4 | 0.00 | 0.41 | 0.41 | 87 | 1007.1 |
| 20260509173046 | 14 | 320 | 1.6 | 1.6 | 0.00 | 0.41 | 0.41 | 87 | 1007.0 |
| 20260509172543 | 14 | 281 | 6.4 | 9.7 | 0.00 | 0.41 | 0.41 | 88 | 1007.2 |
| 20260509172039 | 13 | 0 | 3.2 | 3.2 | 0.00 | 0.41 | 0.41 | 90 | 1007.1 |
| 20260509171535 | 13 | 291 | 3.2 | 3.2 | 0.00 | 0.41 | 0.41 | 90 | 1007.0 |
| 20260509171031 | 13 | 265 | 6.4 | 6.4 | 0.00 | 0.41 | 0.41 | 90 | 1007.2 |
| 20260509170527 | 13 | 216 | 4.8 | 4.8 | 0.00 | 0.41 | 0.41 | 90 | 1007.0 |
| 20260509170023 | 13 | 246 | 8.0 | 9.7 | 0.00 | 0.41 | 0.41 | 90 | 1007.2 |
| 20260509165522 | 13 | 267 | 8.0 | 11.3 | 0.00 | 0.41 | 0.41 | 91 | 1007.0 |
| 20260509165018 | 13 | 335 | 4.8 | 4.8 | 0.00 | 0.41 | 0.41 | 92 | 1007.0 |
| 20260509164514 | 13 | 311 | 4.8 | 6.4 | 0.00 | 0.41 | 0.41 | 94 | 1007.0 |
| 20260509164009 | 13 | 267 | 4.8 | 6.4 | 0.00 | 0.41 | 0.41 | 95 | 1007.0 |
| 20260509163508 | 13 | 2 | 0.0 | 0.0 | 0.00 | 0.41 | 0.41 | 95 | 1007.1 |
| 20260509163008 | 13 | 0 | 3.2 | 4.8 | 0.00 | 0.41 | 0.41 | 95 | 1007.0 |
| 20260509162506 | 12 | 354 | 3.2 | 3.2 | 0.00 | 0.41 | 0.41 | 97 | 1007.3 |
| 20260509162001 | 12 | 182 | 4.8 | 4.8 | 0.00 | 0.41 | 0.41 | 98 | 1007.0 |
| 20260509161458 | 12 | 280 | 6.4 | 6.4 | 0.00 | 0.41 | 0.41 | 98 | 1007.1 |
| 20260509160953 | 12 | 122 | 3.2 | 4.8 | 0.00 | 0.41 | 0.41 | 99 | 1007.0 |
| 20260509160449 | 11 | 346 | 1.6 | 1.6 | 0.00 | 0.41 | 0.41 | 99 | 1007.0 |
| 20260509155944 | 11 | 353 | 1.6 | 3.2 | 0.00 | 0.41 | 0.41 | 99 | 1007.0 |
| 20260509155441 | 11 | 9 | 0.0 | 0.0 | 0.00 | 0.41 | 0.41 | 99 | 1007.0 |
| 20260509154938 | 11 | 119 | 1.6 | 3.2 | 0.00 | 0.41 | 0.41 | 99 | 1007.0 |
| 20260509154434 | 11 | 331 | 1.6 | 3.2 | 0.00 | 0.41 | 0.41 | 99 | 1007.0 |
| 20260509153931 | 11 | 326 | 4.8 | 6.4 | 0.13 | 0.41 | 0.41 | 99 | 1007.0 |
| 20260509153428 | 11 | 122 | 4.8 | 6.4 | 0.13 | 0.41 | 0.41 | 99 | 1006.8 |
| 20260509152925 | 11 | 322 | 3.2 | 6.4 | 0.00 | 0.38 | 0.38 | 99 | 1007.0 |
| 20260509152421 | 11 | 33 | 1.6 | 3.2 | 0.00 | 0.38 | 0.38 | 99 | 1007.1 |
| 20260509151918 | 11 | 45 | 1.6 | 1.6 | 0.00 | 0.38 | 0.38 | 99 | 1007.0 |
| 20260509151414 | 11 | 306 | 3.2 | 3.2 | 0.00 | 0.38 | 0.38 | 99 | 1007.0 |
| 20260509150912 | 10 | 40 | 1.6 | 1.6 | 0.18 | 0.38 | 0.38 | 99 | 1007.0 |
| 20260509150410 | 10 | 12 | 1.6 | 1.6 | 0.30 | 0.38 | 0.38 | 99 | 1006.9 |
| 20260509145908 | 10 | 278 | 4.8 | 6.4 | 0.30 | 0.36 | 0.36 | 99 | 1007.0 |
| 20260509145407 | 10 | 11 | 3.2 | 4.8 | 0.30 | 0.33 | 0.33 | 99 | 1007.1 |
| 20260509144903 | 10 | 340 | 1.6 | 1.6 | 0.30 | 0.30 | 0.30 | 99 | 1007.1 |
| 20260509144400 | 10 | 58 | 1.6 | 1.6 | 0.30 | 0.28 | 0.28 | 99 | 1007.0 |
| 20260509143857 | 10 | 30 | 1.6 | 1.6 | 0.13 | 0.25 | 0.25 | 99 | 1007.1 |
| 20260509143355 | 10 | 34 | 0.0 | 0.0 | 0.00 | 0.23 | 0.23 | 99 | 1006.9 |
| 20260509142851 | 10 | 307 | 4.8 | 9.7 | 0.00 | 0.23 | 0.23 | 99 | 1007.1 |
| 20260509142348 | 10 | 273 | 3.2 | 3.2 | 0.00 | 0.23 | 0.23 | 99 | 1007.1 |
| 20260509141843 | 10 | 172 | 8.0 | 11.3 | 0.00 | 0.23 | 0.23 | 99 | 1007.1 |
| 20260509141341 | 10 | 11 | 1.6 | 1.6 | 0.00 | 0.23 | 0.23 | 99 | 1007.0 |
| 20260509140837 | 10 | 170 | 4.8 | 6.4 | 0.00 | 0.23 | 0.23 | 99 | 1007.1 |
| 20260509140334 | 10 | 324 | 1.6 | 3.2 | 0.00 | 0.23 | 0.23 | 99 | 1006.9 |
| 20260509135832 | 10 | 85 | 1.6 | 1.6 | 0.00 | 0.23 | 0.23 | 99 | 1007.2 |
| 20260509135329 | 10 | 24 | 1.6 | 1.6 | 0.00 | 0.23 | 0.23 | 99 | 1007.2 |
| 20260509134826 | 10 | 56 | 3.2 | 3.2 | 0.00 | 0.23 | 0.23 | 99 | 1007.2 |
| 20260509134323 | 10 | 14 | 0.0 | 0.0 | 0.18 | 0.23 | 0.23 | 99 | 1007.2 |
| 20260509133820 | 10 | 108 | 1.6 | 1.6 | 0.18 | 0.23 | 0.23 | 99 | 1007.3 |
| 20260509133317 | 10 | 1 | 1.6 | 1.6 | 0.00 | 0.20 | 0.20 | 99 | 1007.3 |
| 20260509132816 | 10 | 169 | 4.8 | 6.4 | 0.13 | 0.20 | 0.20 | 99 | 1007.0 |
| 20260509132314 | 10 | 256 | 3.2 | 3.2 | 0.13 | 0.20 | 0.20 | 99 | 1007.5 |
| 20260509131810 | 10 | 306 | 1.6 | 3.2 | 0.00 | 0.18 | 0.18 | 99 | 1007.2 |
| 20260509131307 | 10 | 271 | 4.8 | 4.8 | 0.00 | 0.18 | 0.18 | 99 | 1007.3 |
| 20260509130803 | 10 | 32 | 0.0 | 1.6 | 0.18 | 0.18 | 0.18 | 99 | 1007.5 |
| 20260509130259 | 10 | 170 | 4.8 | 4.8 | 0.18 | 0.18 | 0.18 | 99 | 1007.3 |
| 20260509125756 | 10 | 16 | 1.6 | 1.6 | 0.13 | 0.15 | 0.15 | 99 | 1007.3 |
| 20260509125253 | 10 | 180 | 1.6 | 3.2 | 0.30 | 0.15 | 0.15 | 99 | 1007.0 |
| 20260509124749 | 10 | 198 | 4.8 | 6.4 | 0.36 | 0.13 | 0.13 | 99 | 1007.3 |
| 20260509124245 | 10 | 86 | 3.2 | 3.2 | 0.18 | 0.10 | 0.10 | 99 | 1007.5 |
| 20260509123744 | 10 | 343 | 1.6 | 1.6 | 0.00 | 0.08 | 0.08 | 99 | 1007.5 |
| 20260509123241 | 10 | 31 | 1.6 | 1.6 | 0.00 | 0.08 | 0.08 | 99 | 1007.5 |
| 20260509122736 | 10 | 174 | 3.2 | 3.2 | 0.00 | 0.08 | 0.08 | 99 | 1007.3 |
| 20260509122233 | 10 | 77 | 3.2 | 3.2 | 0.00 | 0.08 | 0.08 | 99 | 1007.5 |
| 20260509121730 | 10 | 19 | 0.0 | 0.0 | 0.00 | 0.08 | 0.08 | 99 | 1007.3 |
| 20260509121228 | 10 | 70 | 3.2 | 3.2 | 0.00 | 0.08 | 0.08 | 99 | 1007.3 |
| 20260509120726 | 10 | 168 | 3.2 | 4.8 | 0.00 | 0.08 | 0.08 | 99 | 1007.3 |
| 20260509120223 | 10 | 16 | 0.0 | 0.0 | 0.00 | 0.08 | 0.08 | 99 | 1007.5 |
| 20260509115721 | 9 | 66 | 0.0 | 1.6 | 0.00 | 0.08 | 0.08 | 99 | 1007.6 |
| 20260509115218 | 9 | 38 | 0.0 | 0.0 | 0.00 | 0.08 | 0.08 | 99 | 1007.5 |
| 20260509114716 | 9 | 181 | 1.6 | 3.2 | 0.00 | 0.08 | 0.08 | 99 | 1007.6 |
| 20260509114215 | 9 | 299 | 0.0 | 1.6 | 0.00 | 0.08 | 0.08 | 99 | 1007.5 |
| 20260509113713 | 9 | 34 | 3.2 | 4.8 | 0.00 | 0.08 | 0.08 | 99 | 1007.5 |
| 20260509113210 | 9 | 31 | 0.0 | 1.6 | 0.00 | 0.08 | 0.08 | 99 | 1007.3 |
| 20260509112706 | 9 | 46 | 0.0 | 0.0 | 0.00 | 0.08 | 0.08 | 99 | 1007.2 |
| 20260509112203 | 8 | 19 | 0.0 | 0.0 | 0.00 | 0.08 | 0.08 | 99 | 1007.5 |
| 20260509111700 | 8 | 106 | 3.2 | 3.2 | 0.00 | 0.08 | 0.08 | 99 | 1007.3 |
| 20260509111157 | 8 | 32 | 0.0 | 0.0 | 0.00 | 0.08 | 0.08 | 99 | 1007.2 |
| 20260509110655 | 8 | 111 | 3.2 | 4.8 | 0.00 | 0.08 | 0.08 | 99 | 1007.2 |
| 20260509110151 | 8 | 28 | 0.0 | 0.0 | 0.00 | 0.08 | 0.08 | 99 | 1007.3 |
| 20260509105649 | 8 | 26 | 0.0 | 0.0 | 0.00 | 0.08 | 0.08 | 99 | 1007.1 |
| 20260509105147 | 8 | 22 | 0.0 | 1.6 | 0.00 | 0.08 | 0.08 | 99 | 1007.2 |
| 20260509104643 | 8 | 3 | 0.0 | 0.0 | 0.00 | 0.08 | 0.08 | 99 | 1007.2 |
| 20260509104140 | 8 | 97 | 0.0 | 0.0 | 0.00 | 0.08 | 0.08 | 99 | 1007.2 |
| 20260509103638 | 8 | 38 | 0.0 | 0.0 | 0.00 | 0.08 | 0.08 | 99 | 1007.1 |
| 20260509103136 | 8 | 22 | 0.0 | 0.0 | 0.00 | 0.08 | 0.08 | 99 | 1007.1 |
| 20260509102633 | 8 | 43 | 0.0 | 0.0 | 0.00 | 0.08 | 0.08 | 99 | 1007.2 |
| 20260509102130 | 8 | 29 | 0.0 | 0.0 | 0.00 | 0.08 | 0.08 | 99 | 1007.1 |
| 20260509101626 | 8 | 23 | 0.0 | 0.0 | 0.00 | 0.08 | 0.08 | 99 | 1007.2 |
| 20260509101123 | 8 | 35 | 0.0 | 0.0 | 0.00 | 0.08 | 0.08 | 99 | 1007.1 |
| 20260509100621 | 8 | 20 | 0.0 | 0.0 | 0.13 | 0.08 | 0.08 | 99 | 1007.6 |
| 20260509100118 | 8 | 15 | 0.0 | 0.0 | 0.13 | 0.08 | 0.08 | 99 | 1007.5 |
| 20260509095614 | 8 | 25 | 0.0 | 0.0 | 0.00 | 0.05 | 0.05 | 99 | 1007.3 |
| 20260509095112 | 8 | 22 | 0.0 | 1.6 | 0.00 | 0.05 | 0.05 | 99 | 1007.2 |
| 20260509094607 | 8 | 51 | 0.0 | 0.0 | 0.00 | 0.05 | 0.05 | 99 | 1007.5 |
| 20260509094105 | 8 | 25 | 0.0 | 0.0 | 0.00 | 0.05 | 0.05 | 99 | 1007.3 |
| 20260509093604 | 8 | 20 | 0.0 | 0.0 | 0.00 | 0.05 | 0.05 | 99 | 1007.3 |
| 20260509093100 | 8 | 29 | 0.0 | 1.6 | 0.00 | 0.05 | 0.05 | 99 | 1007.5 |
| 20260509092558 | 8 | 41 | 0.0 | 0.0 | 0.00 | 0.05 | 0.05 | 99 | 1007.5 |
| 20260509092057 | 8 | 21 | 0.0 | 0.0 | 0.00 | 0.05 | 0.05 | 99 | 1007.6 |
| 20260509091554 | 8 | 23 | 0.0 | 0.0 | 0.00 | 0.05 | 0.05 | 99 | 1007.7 |
| 20260509091050 | 8 | 22 | 0.0 | 0.0 | 0.00 | 0.05 | 0.05 | 99 | 1007.8 |
| 20260509090548 | 8 | 20 | 0.0 | 0.0 | 0.00 | 0.05 | 0.05 | 99 | 1007.7 |
| 20260509090045 | 8 | 20 | 0.0 | 0.0 | 0.00 | 0.05 | 0.05 | 99 | 1007.8 |
| 20260509085542 | 8 | 22 | 0.0 | 0.0 | 0.00 | 0.05 | 0.05 | 99 | 1008.1 |
| 20260509085038 | 8 | 20 | 0.0 | 0.0 | 0.00 | 0.05 | 0.05 | 99 | 1008.1 |
| 20260509084536 | 8 | 17 | 0.0 | 0.0 | 0.18 | 0.05 | 0.05 | 99 | 1008.1 |
| 20260509084032 | 8 | 20 | 0.0 | 0.0 | 0.18 | 0.05 | 0.05 | 99 | 1007.8 |
| 20260509083530 | 8 | 20 | 0.0 | 0.0 | 0.00 | 0.03 | 0.03 | 99 | 1007.9 |
| 20260509083026 | 8 | 19 | 0.0 | 0.0 | 0.00 | 0.03 | 0.03 | 99 | 1008.0 |
| 20260509082524 | 8 | 23 | 0.0 | 0.0 | 0.00 | 0.03 | 0.03 | 99 | 1008.0 |
| 20260509082021 | 8 | 14 | 0.0 | 0.0 | 0.00 | 0.03 | 0.03 | 99 | 1008.1 |
| 20260509081518 | 8 | 19 | 0.0 | 0.0 | 0.00 | 0.03 | 0.03 | 99 | 1008.1 |
| 20260509081015 | 8 | 358 | 0.0 | 0.0 | 0.00 | 0.03 | 0.03 | 99 | 1008.3 |
| 20260509080513 | 8 | 21 | 0.0 | 0.0 | 0.00 | 0.03 | 0.03 | 99 | 1007.9 |
| 20260509080011 | 8 | 39 | 0.0 | 0.0 | 0.00 | 0.03 | 0.03 | 99 | 1008.0 |
| 20260509075508 | 8 | 29 | 0.0 | 0.0 | 0.00 | 0.03 | 0.03 | 99 | 1008.0 |
| 20260509075006 | 8 | 21 | 0.0 | 0.0 | 0.00 | 0.03 | 0.03 | 99 | 1007.9 |
| 20260509074503 | 8 | 30 | 0.0 | 0.0 | 0.00 | 0.03 | 0.03 | 99 | 1008.0 |
| 20260509073959 | 8 | 21 | 0.0 | 0.0 | 0.00 | 0.03 | 0.03 | 99 | 1008.1 |
| 20260509073455 | 8 | 27 | 0.0 | 0.0 | 0.00 | 0.03 | 0.03 | 99 | 1008.1 |
| 20260509072952 | 8 | 43 | 1.6 | 1.6 | 0.00 | 0.03 | 0.03 | 99 | 1008.0 |
| 20260509072449 | 8 | 25 | 0.0 | 0.0 | 0.00 | 0.03 | 0.03 | 99 | 1007.9 |
| 20260509071946 | 8 | 33 | 0.0 | 0.0 | 0.00 | 0.03 | 0.03 | 99 | 1008.0 |